Time,TemperatureF,DewpointF,PressureIn,WindDirection,WindDirectionDegrees,WindSpeedMPH,WindSpeedGustMPH,Humidity,HourlyPrecipIn,Conditions,Clouds,dailyrainin,SoftwareType,DateUTC
2013-03-14 00:02:00,39.0,36.0,30.06,SE,134,0.0,2.0,89,0.00,,,0.02,,2013-03-14 06:02:00,
2013-03-14 00:12:00,39.0,36.0,30.06,SE,134,0.0,2.0,89,0.00,,,0.02,,2013-03-14 06:12:00,
2013-03-14 00:21:00,39.0,36.0,30.06,SE,132,2.0,3.0,89,0.00,,,0.02,,2013-03-14 06:21:00,
2013-03-14 00:32:00,38.0,35.0,30.06,WSW,258,0.0,0.0,90,0.00,,,0.02,,2013-03-14 06:32:00,
2013-03-14 00:42:00,38.0,35.0,30.06,WSW,258,0.0,0.0,90,0.00,,,0.02,,2013-03-14 06:42:00,
2013-03-14 00:52:00,37.0,34.0,30.06,WSW,258,0.0,1.0,90,0.00,,,0.02,,2013-03-14 06:52:00,
2013-03-14 01:01:00,37.0,35.0,30.06,West,278,0.0,3.0,92,0.00,,,0.02,,2013-03-14 07:01:00,
2013-03-14 01:11:00,37.0,35.0,30.06,West,278,0.0,3.0,92,0.00,,,0.02,,2013-03-14 07:11:00,
2013-03-14 01:22:00,37.0,35.0,30.06,West,277,0.0,2.0,92,0.00,,,0.02,,2013-03-14 07:22:00,
2013-03-14 01:32:00,37.0,35.0,30.06,West,277,0.0,1.0,91,0.00,,,0.02,,2013-03-14 07:32:00,
2013-03-14 01:42:00,37.0,35.0,30.06,West,277,0.0,1.0,91,0.00,,,0.02,,2013-03-14 07:42:00,
2013-03-14 01:52:00,36.0,34.0,30.05,West,277,0.0,1.0,91,0.00,,,0.02,,2013-03-14 07:52:00,
2013-03-14 02:02:00,36.0,34.0,30.06,West,277,0.0,0.0,91,0.00,,,0.02,,2013-03-14 08:02:00,
2013-03-14 02:11:00,36.0,34.0,30.06,West,277,0.0,0.0,91,0.00,,,0.02,,2013-03-14 08:11:00,
2013-03-14 02:21:00,36.0,34.0,30.05,West,277,0.0,1.0,92,0.00,,,0.02,,2013-03-14 08:21:00,
2013-03-14 02:32:00,35.0,33.0,30.04,West,279,1.0,3.0,92,0.00,,,0.02,,2013-03-14 08:32:00,
2013-03-14 02:41:00,35.0,33.0,30.04,West,279,1.0,3.0,92,0.00,,,0.02,,2013-03-14 08:41:00,
2013-03-14 02:51:00,35.0,33.0,30.05,West,279,0.0,3.0,92,0.00,,,0.02,,2013-03-14 08:51:00,
2013-03-14 03:01:00,35.0,33.0,30.04,West,278,0.0,2.0,93,0.00,,,0.02,,2013-03-14 09:01:00,
2013-03-14 03:12:00,35.0,33.0,30.04,West,278,0.0,2.0,93,0.00,,,0.02,,2013-03-14 09:12:00,
2013-03-14 03:22:00,35.0,33.0,30.04,West,278,0.0,1.0,92,0.00,,,0.02,,2013-03-14 09:22:00,
2013-03-14 03:32:00,34.0,32.0,30.05,West,279,1.0,3.0,92,0.00,,,0.02,,2013-03-14 09:32:00,
2013-03-14 03:42:00,34.0,32.0,30.05,West,279,1.0,3.0,92,0.00,,,0.02,,2013-03-14 09:42:00,
2013-03-14 03:52:00,34.0,32.0,30.06,West,279,0.0,1.0,92,0.00,,,0.02,,2013-03-14 09:52:00,
2013-03-14 04:02:00,34.0,32.0,30.06,West,279,0.0,1.0,93,0.00,,,0.02,,2013-03-14 10:02:00,
2013-03-14 04:12:00,34.0,32.0,30.06,West,279,0.0,1.0,93,0.00,,,0.02,,2013-03-14 10:12:00,
2013-03-14 04:22:00,34.0,32.0,30.06,West,279,0.0,2.0,93,0.00,,,0.02,,2013-03-14 10:22:00,
2013-03-14 04:32:00,34.0,32.0,30.06,West,279,0.0,2.0,93,0.00,,,0.02,,2013-03-14 10:32:00,
2013-03-14 04:42:00,34.0,32.0,30.06,West,279,0.0,2.0,93,0.00,,,0.02,,2013-03-14 10:42:00,
2013-03-14 04:52:00,34.0,32.0,30.06,West,279,0.0,1.0,94,0.00,,,0.02,,2013-03-14 10:52:00,
2013-03-14 05:02:00,34.0,32.0,30.05,West,279,0.0,2.0,94,0.00,,,0.02,,2013-03-14 11:02:00,
2013-03-14 05:12:00,34.0,32.0,30.05,West,279,0.0,2.0,94,0.00,,,0.02,,2013-03-14 11:12:00,
2013-03-14 05:22:00,34.0,32.0,30.05,West,275,1.0,3.0,94,0.00,,,0.02,,2013-03-14 11:22:00,
2013-03-14 05:32:00,34.0,32.0,30.05,West,268,0.0,3.0,94,0.00,,,0.02,,2013-03-14 11:32:00,
2013-03-14 05:42:00,34.0,32.0,30.05,West,268,0.0,3.0,94,0.00,,,0.02,,2013-03-14 11:42:00,
2013-03-14 05:52:00,34.0,32.0,30.05,NNW,341,0.0,4.0,94,0.00,,,0.02,,2013-03-14 11:52:00,
2013-03-14 06:01:00,33.0,31.0,30.06,NW,324,0.0,2.0,94,0.00,,,0.02,,2013-03-14 12:01:00,
2013-03-14 06:12:00,33.0,31.0,30.06,NW,324,0.0,2.0,94,0.00,,,0.02,,2013-03-14 12:12:00,
2013-03-14 06:21:00,33.0,32.0,30.06,NW,323,0.0,1.0,95,0.00,,,0.02,,2013-03-14 12:21:00,
2013-03-14 06:32:00,33.0,31.0,30.05,NW,324,0.0,1.0,94,0.00,,,0.02,,2013-03-14 12:32:00,
2013-03-14 06:42:00,33.0,31.0,30.05,NW,324,0.0,1.0,94,0.00,,,0.02,,2013-03-14 12:42:00,
2013-03-14 06:52:00,33.0,32.0,30.05,NW,323,0.0,2.0,95,0.00,,,0.02,,2013-03-14 12:52:00,
2013-03-14 07:02:00,33.0,32.0,30.05,NNW,336,0.0,5.0,95,0.00,,,0.02,,2013-03-14 13:02:00,
2013-03-14 07:12:00,33.0,32.0,30.05,NNW,336,0.0,5.0,95,0.00,,,0.02,,2013-03-14 13:12:00,
2013-03-14 07:21:00,33.0,32.0,30.05,NNW,336,0.0,5.0,95,0.00,,,0.02,,2013-03-14 13:21:00,
2013-03-14 07:32:00,33.0,32.0,30.04,NW,313,2.0,5.0,95,0.00,,,0.02,,2013-03-14 13:32:00,
2013-03-14 07:43:00,33.0,32.0,30.04,NW,313,2.0,5.0,95,0.00,,,0.02,,2013-03-14 13:43:00,
2013-03-14 07:52:00,32.0,31.0,30.04,NNW,331,0.0,5.0,95,0.00,,,0.02,,2013-03-14 13:52:00,
2013-03-14 08:02:00,32.0,31.0,30.05,NW,316,0.0,3.0,95,0.00,,,0.02,,2013-03-14 14:02:00,
2013-03-14 08:12:00,32.0,31.0,30.05,NW,316,0.0,3.0,95,0.00,,,0.02,,2013-03-14 14:12:00,
2013-03-14 08:22:00,32.0,31.0,30.04,NW,316,0.0,3.0,95,0.00,,,0.02,,2013-03-14 14:22:00,
2013-03-14 08:32:00,32.0,31.0,30.03,NW,316,0.0,1.0,95,0.00,,,0.01,,2013-03-14 14:32:00,
2013-03-14 08:42:00,32.0,31.0,30.03,NW,316,0.0,1.0,95,0.00,,,0.01,,2013-03-14 14:42:00,
2013-03-14 08:52:00,32.0,31.0,30.03,NW,316,0.0,2.0,95,0.00,,,0.01,,2013-03-14 14:52:00,
2013-03-14 09:02:00,32.0,31.0,30.04,SW,227,0.0,2.0,95,0.00,,,0.01,,2013-03-14 15:02:00,
2013-03-14 09:12:00,32.0,31.0,30.04,SW,227,0.0,2.0,95,0.00,,,0.01,,2013-03-14 15:12:00,
2013-03-14 09:22:00,33.0,32.0,30.03,NNW,348,1.0,4.0,96,0.00,,,0.01,,2013-03-14 15:22:00,
2013-03-14 09:32:00,33.0,32.0,30.03,NNW,333,0.0,3.0,96,0.00,,,0.00,,2013-03-14 15:32:00,
2013-03-14 09:42:00,33.0,32.0,30.03,NNW,333,0.0,3.0,96,0.00,,,0.00,,2013-03-14 15:42:00,
2013-03-14 09:52:00,34.0,33.0,30.03,NNW,333,0.0,3.0,96,0.00,,,0.00,,2013-03-14 15:52:00,
2013-03-14 10:02:00,35.0,34.0,30.03,NW,319,1.0,5.0,96,0.00,,,0.00,,2013-03-14 16:02:00,
2013-03-14 10:12:00,35.0,34.0,30.03,NW,319,1.0,5.0,96,0.00,,,0.00,,2013-03-14 16:12:00,
2013-03-14 10:22:00,36.0,35.0,30.03,NNW,348,1.0,5.0,96,0.00,,,0.00,,2013-03-14 16:22:00,
2013-03-14 10:32:00,36.0,35.0,30.03,NNW,341,1.0,3.0,96,0.00,,,0.00,,2013-03-14 16:32:00,
2013-03-14 10:42:00,36.0,35.0,30.03,NNW,341,1.0,3.0,96,0.00,,,0.00,,2013-03-14 16:42:00,
2013-03-14 10:52:00,37.0,36.0,30.02,NNW,341,0.0,2.0,96,0.00,,,0.00,,2013-03-14 16:52:00,
2013-03-14 11:01:00,38.0,37.0,30.03,NW,322,1.0,6.0,95,0.00,,,0.00,,2013-03-14 17:01:00,
2013-03-14 11:12:00,38.0,37.0,30.03,NW,322,1.0,6.0,95,0.00,,,0.00,,2013-03-14 17:12:00,
2013-03-14 11:22:00,39.0,38.0,30.02,NW,323,0.0,2.0,95,0.00,,,0.00,,2013-03-14 17:22:00,
2013-03-14 11:42:00,40.0,38.0,30.03,NW,323,0.0,0.0,93,0.00,,,0.00,,2013-03-14 17:42:00,
2013-03-14 11:52:00,41.0,38.0,30.03,NW,323,0.0,1.0,90,0.00,,,0.00,,2013-03-14 17:52:00,
2013-03-14 12:02:00,42.0,38.0,30.02,NW,323,0.0,1.0,87,0.00,,,0.00,,2013-03-14 18:02:00,
2013-03-14 12:12:00,42.0,38.0,30.02,NW,323,0.0,1.0,87,0.00,,,0.00,,2013-03-14 18:12:00,
2013-03-14 12:22:00,43.0,38.0,30.02,NW,323,0.0,1.0,83,0.00,,,0.00,,2013-03-14 18:22:00,
2013-03-14 12:32:00,44.0,39.0,30.02,NW,322,0.0,3.0,81,0.00,,,0.00,,2013-03-14 18:32:00,
2013-03-14 12:42:00,44.0,39.0,30.02,NW,322,0.0,3.0,81,0.00,,,0.00,,2013-03-14 18:42:00,
2013-03-14 12:52:00,45.0,39.0,30.01,NW,322,0.0,0.0,78,0.00,,,0.00,,2013-03-14 18:52:00,
2013-03-14 13:02:00,46.0,39.0,30.01,NW,323,0.0,1.0,76,0.00,,,0.00,,2013-03-14 19:02:00,
2013-03-14 13:12:00,46.0,39.0,30.01,NW,323,0.0,1.0,76,0.00,,,0.00,,2013-03-14 19:12:00,
2013-03-14 13:22:00,47.0,39.0,30.01,NW,323,0.0,0.0,74,0.00,,,0.00,,2013-03-14 19:22:00,
2013-03-14 13:32:00,48.0,39.0,30.00,West,279,0.0,3.0,71,0.00,,,0.00,,2013-03-14 19:32:00,
2013-03-14 13:42:00,48.0,39.0,30.00,West,279,0.0,3.0,71,0.00,,,0.00,,2013-03-14 19:42:00,
2013-03-14 13:52:00,48.0,39.0,29.99,West,279,0.0,2.0,70,0.00,,,0.00,,2013-03-14 19:52:00,
2013-03-14 14:02:00,48.0,38.0,29.99,West,279,1.0,3.0,69,0.00,,,0.00,,2013-03-14 20:02:00,
2013-03-14 14:11:00,48.0,38.0,29.99,West,279,1.0,3.0,69,0.00,,,0.00,,2013-03-14 20:11:00,
2013-03-14 14:22:00,49.0,39.0,29.98,West,279,0.0,2.0,69,0.00,,,0.00,,2013-03-14 20:22:00,
2013-03-14 14:31:00,49.0,39.0,29.99,WNW,284,0.0,4.0,69,0.00,,,0.00,,2013-03-14 20:31:00,
2013-03-14 14:42:00,49.0,39.0,29.99,WNW,284,0.0,4.0,69,0.00,,,0.00,,2013-03-14 20:42:00,
2013-03-14 14:51:00,49.0,39.0,29.98,WNW,284,0.0,2.0,68,0.00,,,0.00,,2013-03-14 20:51:00,
2013-03-14 15:02:00,49.0,39.0,29.98,WNW,284,0.0,2.0,68,0.00,,,0.00,,2013-03-14 21:02:00,
2013-03-14 15:12:00,49.0,39.0,29.98,WNW,284,0.0,2.0,68,0.00,,,0.00,,2013-03-14 21:12:00,
2013-03-14 15:21:00,51.0,40.0,29.96,NNW,338,0.0,4.0,66,0.00,,,0.00,,2013-03-14 21:21:00,
2013-03-14 15:32:00,51.0,40.0,29.96,North,355,0.0,3.0,65,0.00,,,0.00,,2013-03-14 21:32:00,
2013-03-14 15:43:00,51.0,40.0,29.96,North,355,0.0,3.0,65,0.00,,,0.00,,2013-03-14 21:43:00,
2013-03-14 15:52:00,51.0,40.0,29.95,North,351,0.0,3.0,65,0.00,,,0.00,,2013-03-14 21:52:00,
2013-03-14 16:03:00,52.0,41.0,29.93,North,355,0.0,0.0,65,0.00,,,0.00,,2013-03-14 22:03:00,
2013-03-14 16:12:00,52.0,41.0,29.93,North,355,0.0,0.0,65,0.00,,,0.00,,2013-03-14 22:12:00,
2013-03-14 16:23:00,52.0,40.0,29.93,North,355,0.0,1.0,64,0.00,,,0.00,,2013-03-14 22:23:00,
2013-03-14 16:32:00,52.0,40.0,29.92,SE,143,1.0,3.0,63,0.00,,,0.00,,2013-03-14 22:32:00,
2013-03-14 16:42:00,52.0,40.0,29.92,SE,143,1.0,3.0,63,0.00,,,0.00,,2013-03-14 22:42:00,
2013-03-14 16:52:00,52.0,40.0,29.92,SSE,166,0.0,1.0,63,0.00,,,0.00,,2013-03-14 22:52:00,
2013-03-14 17:02:00,53.0,40.0,29.92,South,177,0.0,1.0,62,0.00,,,0.00,,2013-03-14 23:02:00,
2013-03-14 17:11:00,53.0,40.0,29.92,South,177,0.0,1.0,62,0.00,,,0.00,,2013-03-14 23:11:00,
2013-03-14 17:21:00,53.0,40.0,29.90,ESE,120,0.0,2.0,61,0.00,,,0.00,,2013-03-14 23:21:00,
2013-03-14 17:32:00,53.0,40.0,29.89,SE,125,0.0,4.0,61,0.00,,,0.00,,2013-03-14 23:32:00,
2013-03-14 17:42:00,53.0,40.0,29.89,SE,125,0.0,4.0,61,0.00,,,0.00,,2013-03-14 23:42:00,
2013-03-14 17:52:00,53.0,39.0,29.89,SE,142,0.0,3.0,60,0.00,,,0.00,,2013-03-14 23:52:00,
2013-03-14 18:02:00,53.0,40.0,29.89,SSE,167,0.0,2.0,61,0.00,,,0.00,,2013-03-15 00:02:00,
2013-03-14 18:12:00,53.0,40.0,29.89,SSE,167,0.0,1.0,61,0.00,,,0.00,,2013-03-15 00:12:00,
2013-03-14 18:22:00,53.0,40.0,29.89,SSE,167,0.0,1.0,61,0.00,,,0.00,,2013-03-15 00:22:00,
2013-03-14 18:32:00,53.0,39.0,29.89,SSE,167,0.0,1.0,60,0.00,,,0.00,,2013-03-15 00:32:00,
2013-03-14 18:42:00,53.0,39.0,29.89,SSE,167,0.0,1.0,60,0.00,,,0.00,,2013-03-15 00:42:00,
2013-03-14 18:52:00,53.0,40.0,29.88,SSE,167,0.0,2.0,61,0.00,,,0.00,,2013-03-15 00:52:00,
2013-03-14 19:02:00,53.0,42.0,29.88,SSE,167,0.0,1.0,66,0.00,,,0.00,,2013-03-15 01:02:00,
2013-03-14 19:11:00,53.0,42.0,29.88,SSE,167,0.0,1.0,66,0.00,,,0.00,,2013-03-15 01:11:00,
2013-03-14 19:21:00,52.0,41.0,29.88,SSE,167,0.0,2.0,66,0.00,,,0.00,,2013-03-15 01:21:00,
2013-03-14 19:32:00,52.0,41.0,29.87,SSE,167,0.0,1.0,67,0.00,,,0.00,,2013-03-15 01:32:00,
2013-03-14 19:42:00,52.0,41.0,29.87,SSE,167,0.0,1.0,67,0.00,,,0.00,,2013-03-15 01:42:00,
2013-03-14 19:52:00,51.0,40.0,29.88,NW,315,0.0,3.0,67,0.00,,,0.00,,2013-03-15 01:52:00,
2013-03-14 20:02:00,50.0,39.0,29.88,NW,306,0.0,3.0,67,0.00,,,0.00,,2013-03-15 02:02:00,
2013-03-14 20:12:00,50.0,39.0,29.88,NW,306,0.0,3.0,67,0.00,,,0.00,,2013-03-15 02:12:00,
2013-03-14 20:22:00,49.0,40.0,29.87,NW,306,0.0,3.0,71,0.00,,,0.00,,2013-03-15 02:22:00,
2013-03-14 20:32:00,48.0,40.0,29.88,NW,306,0.0,1.0,73,0.00,,,0.00,,2013-03-15 02:32:00,
2013-03-14 20:42:00,48.0,40.0,29.88,NW,306,0.0,1.0,73,0.00,,,0.00,,2013-03-15 02:42:00,
2013-03-14 20:51:00,47.0,39.0,29.88,NW,306,0.0,1.0,74,0.00,,,0.00,,2013-03-15 02:51:00,
2013-03-14 21:01:00,46.0,39.0,29.88,NW,306,0.0,0.0,77,0.00,,,0.00,,2013-03-15 03:01:00,
2013-03-14 21:11:00,46.0,39.0,29.88,NW,306,0.0,0.0,77,0.00,,,0.00,,2013-03-15 03:11:00,
2013-03-14 21:22:00,45.0,39.0,29.88,NW,306,0.0,2.0,78,0.00,,,0.00,,2013-03-15 03:22:00,
2013-03-14 21:32:00,44.0,38.0,29.88,NW,306,0.0,1.0,79,0.00,,,0.00,,2013-03-15 03:32:00,
2013-03-14 21:42:00,44.0,38.0,29.88,NW,306,0.0,1.0,79,0.00,,,0.00,,2013-03-15 03:42:00,
2013-03-14 21:52:00,44.0,38.0,29.88,NW,304,1.0,3.0,80,0.00,,,0.00,,2013-03-15 03:52:00,
2013-03-14 22:03:00,44.0,39.0,29.88,NW,304,0.0,1.0,81,0.00,,,0.00,,2013-03-15 04:03:00,
2013-03-14 22:12:00,44.0,39.0,29.88,NW,304,0.0,1.0,81,0.00,,,0.00,,2013-03-15 04:12:00,
2013-03-14 22:22:00,43.0,38.0,29.88,SW,224,0.0,3.0,82,0.00,,,0.00,,2013-03-15 04:22:00,
2013-03-14 22:32:00,43.0,38.0,29.88,SW,224,0.0,3.0,83,0.00,,,0.00,,2013-03-15 04:32:00,
2013-03-14 22:42:00,43.0,38.0,29.88,SW,224,0.0,3.0,83,0.00,,,0.00,,2013-03-15 04:42:00,
2013-03-14 22:52:00,43.0,38.0,29.89,WNW,290,0.0,2.0,83,0.00,,,0.00,,2013-03-15 04:52:00,
2013-03-14 23:02:00,43.0,38.0,29.89,West,259,3.0,5.0,83,0.00,,,0.00,,2013-03-15 05:02:00,
2013-03-14 23:12:00,43.0,38.0,29.89,West,259,3.0,5.0,83,0.00,,,0.00,,2013-03-15 05:12:00,
2013-03-14 23:22:00,43.0,38.0,29.88,SE,142,0.0,7.0,83,0.00,,,0.00,,2013-03-15 05:22:00,
2013-03-14 23:32:00,43.0,38.0,29.89,East,84,0.0,3.0,82,0.00,,,0.00,,2013-03-15 05:32:00,
2013-03-14 23:42:00,43.0,38.0,29.89,East,84,0.0,3.0,82,0.00,,,0.00,,2013-03-15 05:42:00,
2013-03-14 23:52:00,43.0,38.0,29.88,East,84,0.0,3.0,83,0.00,,,0.00,,2013-03-15 05:52:00,